Regional Weather Roundup
Issued by NWS

Home | Current Version | Previous Version | Graphics & Text | Print | Product List | Glossary On
Versions: 1 2 3 4 5 6 7 8 9 10 11 12 13 14 15 16 17 18 19 20 21 22 23 24 25 26 27 28 29 30 31 32 33 34 35 36 37 38 39 40 41 42 43 44 45 46 47 48 49 50
000
ASUS43 KBIS 221610
RWRND
NORTH DAKOTA REGIONAL WEATHER ROUNDUP
NATIONAL WEATHER SERVICE EASTERN NORTH DAKOTA/GRAND FORKS ND
1100 AM CDT THU JUN 22 2017

  NOTE: "FAIR" INDICATES FEW OR NO CLOUDS BELOW 12,000 FEET WITH NO
  SIGNIFICANT WEATHER AND/OR OBSTRUCTIONS TO VISIBILITY.

NDZ001>003-009>011-017-221700-
...NORTHWEST NORTH DAKOTA...

CITY           SKY/WX    TMP DP  RH WIND       PRES   REMARKS
WILLISTON      FAIR      67  38  34 NW21G29   29.86F
MINOT          FAIR      69  38  32 W25G31    29.78S
MINOT AFB      NOT AVBL
$$

NDZ018>021-031>035-040>046-221700-
...SOUTHWEST NORTH DAKOTA...

CITY           SKY/WX    TMP DP  RH WIND       PRES   REMARKS
BISMARCK       PTSUNNY   70  45  40 NW16G26   29.83S
DICKINSON      FAIR      66  40  38 NW21G29   29.88R
GARRISON         N/A     66  41  40 NW24G33   29.81F
HETTINGER      FAIR      70  40  33 NW17G24   29.92S
$$

NDZ004>008-012>016-024-026-027-054-221700-
...NORTHEAST NORTH DAKOTA...

CITY           SKY/WX    TMP DP  RH WIND       PRES   REMARKS
GRAND FORKS    FAIR      70  52  52 SW15      29.69F
GRAND FORKS AF FAIR      70  51  50 W12       29.70F
DEVILS LAKE    FAIR      67  47  48 NW18G26   29.73F
$$

NDZ022-023-025-028>030-036>039-047>053-221700-
...SOUTHEAST NORTH DAKOTA...

CITY           SKY/WX    TMP DP  RH WIND       PRES   REMARKS
JAMESTOWN      CLOUDY    69  49  48 W12       29.76F
FARGO          FAIR      75  47  36 NW13      29.72F
WAHPETON       FAIR      68  50  52 NW10      29.75R
$$



USA.gov is the U.S. government's official web portal to all federal, state and local government web resources and services.